Time,TemperatureF,DewpointF,PressureIn,WindDirection,WindDirectionDegrees,WindSpeedMPH,WindSpeedGustMPH,Humidity,HourlyPrecipIn,Conditions,Clouds,dailyrainin,SoftwareType,DateUTC
2013-10-04 00:24:00,54.0,54.0,29.88,North,10,14.0,22.0,100,-99.99,,,-99.99,,2013-10-04 05:24:00,
2013-10-04 00:30:00,54.0,54.0,29.88,North,10,14.0,22.0,100,-99.99,,,-99.99,,2013-10-04 05:30:00,
2013-10-04 00:50:00,54.0,54.0,29.89,NNE,30,12.0,20.0,100,-99.99,,,-99.99,,2013-10-04 05:50:00,
2013-10-04 01:26:00,54.0,54.0,29.85,NNE,20,15.0,21.0,100,-99.99,,,-99.99,,2013-10-04 06:26:00,
2013-10-04 01:46:00,54.0,54.0,29.86,NE,40,16.0,24.0,100,-99.99,,,-99.99,,2013-10-04 06:46:00,
2013-10-04 01:54:00,54.0,54.0,29.88,NNE,30,15.0,21.0,100,-99.99,,,-99.99,,2013-10-04 06:54:00,
2013-10-04 02:07:00,54.0,54.0,29.88,NNE,30,15.0,21.0,100,-99.99,,,-99.99,,2013-10-04 07:07:00,
2013-10-04 02:26:00,55.0,55.0,29.89,NNE,30,12.0,25.0,100,-99.99,,,-99.99,,2013-10-04 07:26:00,
2013-10-04 02:46:00,55.0,55.0,29.88,NNE,30,9.0,-999.0,100,-99.99,,,-99.99,,2013-10-04 07:46:00,
2013-10-04 02:54:00,55.0,55.0,29.86,NNE,20,15.0,-999.0,100,-99.99,,,-99.99,,2013-10-04 07:54:00,
2013-10-04 03:06:00,55.0,55.0,29.86,NNE,20,15.0,-999.0,100,-99.99,,,-99.99,,2013-10-04 08:06:00,
2013-10-04 03:26:00,55.0,55.0,29.88,NE,40,10.0,17.0,100,-99.99,,,-99.99,,2013-10-04 08:26:00,
2013-10-04 03:46:00,55.0,55.0,29.87,NE,40,12.0,20.0,100,-99.99,,,-99.99,,2013-10-04 08:46:00,
2013-10-04 04:16:00,55.0,55.0,29.87,NE,50,14.0,22.0,100,-99.99,,,-99.99,,2013-10-04 09:16:00,
2013-10-04 04:26:00,55.0,55.0,29.87,NE,50,14.0,22.0,100,-99.99,,,-99.99,,2013-10-04 09:26:00,
2013-10-04 04:51:00,54.0,54.0,29.87,ENE,60,12.0,17.0,100,-99.99,,,-99.99,,2013-10-04 09:51:00,
2013-10-04 05:19:00,54.0,54.0,29.87,NE,50,13.0,18.0,100,-99.99,,,-99.99,,2013-10-04 10:19:00,
2013-10-04 05:29:00,54.0,54.0,29.87,NE,50,13.0,18.0,100,-99.99,,,-99.99,,2013-10-04 10:29:00,
2013-10-04 05:51:00,54.0,54.0,29.87,NE,40,14.0,21.0,100,-99.99,,,-99.99,,2013-10-04 10:51:00,
2013-10-04 06:18:00,54.0,54.0,29.89,NE,50,9.0,-999.0,100,-99.99,,,-99.99,,2013-10-04 11:18:00,
2013-10-04 06:28:00,54.0,54.0,29.89,NE,50,9.0,-999.0,100,-99.99,,,-99.99,,2013-10-04 11:28:00,
2013-10-04 06:51:00,54.0,54.0,29.88,NE,50,12.0,22.0,100,-99.99,,,-99.99,,2013-10-04 11:51:00,
2013-10-04 07:00:00,54.0,54.0,29.87,NE,50,10.0,20.0,100,-99.99,,,-99.99,,2013-10-04 12:00:00,
2013-10-04 07:08:00,54.0,54.0,29.87,NE,50,10.0,20.0,100,-99.99,,,-99.99,,2013-10-04 12:08:00,
2013-10-04 07:28:00,54.0,54.0,29.85,NE,50,13.0,22.0,100,-99.99,,,-99.99,,2013-10-04 12:28:00,
2013-10-04 07:48:00,54.0,54.0,29.83,NNE,30,16.0,22.0,100,-99.99,,,-99.99,,2013-10-04 12:48:00,
2013-10-04 07:56:00,54.0,54.0,29.85,NE,40,13.0,20.0,100,-99.99,,,-99.99,,2013-10-04 12:56:00,
2013-10-04 08:09:00,54.0,54.0,29.85,NE,40,13.0,20.0,100,-99.99,,,-99.99,,2013-10-04 13:09:00,
2013-10-04 08:28:00,54.0,54.0,29.85,ENE,60,13.0,21.0,100,-99.99,,,-99.99,,2013-10-04 13:28:00,
2013-10-04 08:47:00,54.0,54.0,29.86,NE,50,13.0,18.0,100,-99.99,,,-99.99,,2013-10-04 13:47:00,
2013-10-04 09:17:00,54.0,54.0,29.86,NE,50,14.0,18.0,100,-99.99,,,-99.99,,2013-10-04 14:17:00,
2013-10-04 09:28:00,54.0,54.0,29.86,NE,50,14.0,18.0,100,-99.99,,,-99.99,,2013-10-04 14:28:00,
2013-10-04 09:51:00,54.0,54.0,29.87,NE,40,14.0,-999.0,100,-99.99,,,-99.99,,2013-10-04 14:51:00,
2013-10-04 10:28:00,54.0,54.0,29.86,NE,50,14.0,20.0,100,-99.99,,,-99.99,,2013-10-04 15:28:00,
2013-10-04 10:48:00,54.0,54.0,29.87,ENE,60,15.0,21.0,100,-99.99,,,-99.99,,2013-10-04 15:48:00,
2013-10-04 10:57:00,54.0,54.0,29.87,ENE,60,15.0,23.0,100,-99.99,,,-99.99,,2013-10-04 15:57:00,
2013-10-04 11:09:00,54.0,54.0,29.87,ENE,60,15.0,23.0,100,-99.99,,,-99.99,,2013-10-04 16:09:00,
2013-10-04 11:29:00,54.0,54.0,29.86,NE,50,13.0,20.0,100,-99.99,,,-99.99,,2013-10-04 16:29:00,
2013-10-04 11:49:00,55.0,55.0,29.87,ENE,60,13.0,17.0,100,-99.99,,,-99.99,,2013-10-04 16:49:00,
2013-10-04 12:18:00,55.0,55.0,29.86,NE,50,13.0,18.0,100,-99.99,,,-99.99,,2013-10-04 17:18:00,
2013-10-04 12:29:00,55.0,55.0,29.86,NE,50,13.0,18.0,100,-99.99,,,-99.99,,2013-10-04 17:29:00,
2013-10-04 13:30:00,57.0,57.0,29.83,ENE,60,13.0,23.0,100,-99.99,,,-99.99,,2013-10-04 18:30:00,
2013-10-04 13:49:00,57.0,57.0,29.84,ENE,60,12.0,17.0,100,-99.99,,,-99.99,,2013-10-04 18:49:00,
2013-10-04 14:22:00,59.0,59.0,29.81,ENE,60,15.0,22.0,100,-99.99,,,-99.99,,2013-10-04 19:22:00,
2013-10-04 14:43:00,59.0,59.0,29.78,ENE,60,17.0,24.0,100,-99.99,,,-99.99,,2013-10-04 19:43:00,
2013-10-04 15:22:00,59.0,59.0,29.77,ENE,70,17.0,22.0,100,-99.99,,,-99.99,,2013-10-04 20:22:00,
2013-10-04 15:43:00,59.0,59.0,29.76,NE,50,17.0,23.0,100,-99.99,,,-99.99,,2013-10-04 20:43:00,
2013-10-04 16:22:00,61.0,61.0,29.76,ENE,60,12.0,22.0,100,-99.99,,,-99.99,,2013-10-04 21:22:00,
2013-10-04 16:43:00,59.0,59.0,29.77,ENE,70,14.0,21.0,100,-99.99,,,-99.99,,2013-10-04 21:43:00,
2013-10-04 17:12:00,61.0,61.0,29.75,ENE,60,16.0,22.0,100,-99.99,,,-99.99,,2013-10-04 22:12:00,
2013-10-04 17:23:00,61.0,61.0,29.75,ENE,60,16.0,22.0,100,-99.99,,,-99.99,,2013-10-04 22:23:00,
2013-10-04 17:43:00,61.0,61.0,29.72,ENE,60,15.0,25.0,100,-99.99,,,-99.99,,2013-10-04 22:43:00,
2013-10-04 18:22:00,61.0,61.0,29.70,NE,50,17.0,25.0,100,-99.99,,,-99.99,,2013-10-04 23:22:00,
2013-10-04 18:42:00,61.0,61.0,29.70,ENE,60,17.0,24.0,100,-99.99,,,-99.99,,2013-10-04 23:42:00,
2013-10-04 19:22:00,61.0,61.0,29.68,ENE,60,13.0,21.0,100,-99.99,,,-99.99,,2013-10-05 00:22:00,
2013-10-04 19:42:00,61.0,61.0,29.68,ENE,70,15.0,22.0,100,-99.99,,,-99.99,,2013-10-05 00:42:00,
2013-10-04 20:21:00,61.0,61.0,29.69,ENE,70,14.0,21.0,100,-99.99,,,-99.99,,2013-10-05 01:21:00,
2013-10-04 20:43:00,61.0,61.0,29.70,East,80,13.0,18.0,100,-99.99,,,-99.99,,2013-10-05 01:43:00,
2013-10-04 21:22:00,61.0,61.0,29.70,East,90,8.0,-999.0,100,-99.99,,,-99.99,,2013-10-05 02:22:00,
2013-10-04 21:42:00,61.0,61.0,29.71,East,100,6.0,-999.0,100,-99.99,,,-99.99,,2013-10-05 02:42:00,
2013-10-04 22:23:00,59.0,55.0,29.74,WSW,240,15.0,27.0,87,-99.99,,,-99.99,,2013-10-05 03:23:00,
2013-10-04 22:45:00,55.0,54.0,29.75,SW,230,14.0,18.0,93,-99.99,,,-99.99,,2013-10-05 03:45:00,
2013-10-04 23:14:00,54.0,52.0,29.76,SW,230,12.0,17.0,93,-99.99,,,-99.99,,2013-10-05 04:14:00,
2013-10-04 23:24:00,54.0,52.0,29.76,SW,230,12.0,17.0,93,-99.99,,,-99.99,,2013-10-05 04:24:00,
2013-10-04 23:44:00,50.0,46.0,29.77,SW,230,14.0,20.0,87,-99.99,,,-99.99,,2013-10-05 04:44:00,